Phnom Penh, Cambodia

3:06 AM +07 on October 21, 2017 (GMT +0700)
Pochentong International

Weather History for VDPP - April, 2014

Change the Weather History Date:

Friday, April 11, 2014

  Actual Average Record
Temperature  
Mean Temperature 85 °F -  
Max Temperature 93 °F 92 °F 104 °F (2016)
Min Temperature 77 °F 78 °F 77 °F (2002)
Cooling Degree Days 20    
Growing Degree Days 35 (Base 50)    
Moisture  
Dew Point 72 °F    
Average Humidity 68    
Maximum Humidity 89    
Minimum Humidity 49    
Precipitation  
Precipitation 0.00 in - - ()
Sea Level Pressure  
Sea Level Pressure 29.78 in    
Wind  
Wind Speed 7 mph ()    
Max Wind Speed 16 mph    
Max Gust Speed 23 mph    
Visibility 5.8 miles    
Events Rain , Thunderstorm    
Averages and records for this station are not official NWS values.
T = Trace of Precipitation, MM = Missing Value Source: Averaged Metar Reports

Daily Weather History Graph

Daily Weather History Graph

Search for Another Location

Airport or City:

Trip Planner

Search our weather history database for the weather conditions in past years. The results will help you decide how hot, cold, wet, or windy it might be!

Date:

Astronomy

Apr. 11, 2014 Rise Set
Actual Time 5:51 AM +07 6:12 PM +07
Civil Twilight 5:30 AM +07 6:33 PM +07
Nautical Twilight 5:05 AM +07 6:58 PM +07
Astronomical Twilight 4:40 AM +07 7:23 PM +07
Moon 2:59 PM +07 (4/11) 2:47 AM +07 (4/11)
Length of Visible Light 13h 03m
Length of Day
12h 20m
Waxing Gibbous, 83% of the Moon is Illuminated
Apr 11
Waxing Gibbous
Apr 15
Full
Apr 22
Last Quarter
Apr 29
New
May 7
First Quarter

Hourly Weather History & Observations

Time (+07) Temp. Heat Index Dew Point Humidity Pressure Visibility Wind Dir Wind Speed Gust Speed Precip Events Conditions
12:00 AM 80.6 °F 83.9 °F 69.8 °F 70% 29.83 in 5.6 mi ESE 6.9 mph - N/A   Partly Cloudy
12:30 AM 82.4 °F 87.2 °F 71.6 °F 70% 29.80 in 5.6 mi SE 6.9 mph - N/A   Partly Cloudy
6:00 AM 77.0 °F - 71.6 °F 83% 29.80 in 6.2 mi SE 3.5 mph - N/A   Partly Cloudy
7:00 AM 80.6 °F 85.4 °F 73.4 °F 79% 29.83 in 5.6 mi SSE 8.1 mph - N/A   Partly Cloudy
7:30 AM 82.4 °F 88.2 °F 73.4 °F 74% 29.83 in 5.6 mi SSE 6.9 mph - N/A   Partly Cloudy
8:00 AM 84.2 °F 90.9 °F 73.4 °F 70% 29.83 in 6.2 mi South 12.7 mph - N/A   Partly Cloudy
8:30 AM 86.0 °F 93.4 °F 73.4 °F 66% 29.86 in 6.2 mi South 5.8 mph - N/A   Scattered Clouds
9:00 AM 86.0 °F 93.4 °F 73.4 °F 66% 29.86 in 6.2 mi SSE 8.1 mph - N/A   Scattered Clouds
9:30 AM 87.8 °F 95.6 °F 73.4 °F 62% 29.86 in 6.2 mi SSE 6.9 mph - N/A   Scattered Clouds
10:00 AM 87.8 °F 95.6 °F 73.4 °F 62% 29.86 in 6.2 mi SSE 8.1 mph - N/A   Scattered Clouds
10:30 AM 87.8 °F 95.6 °F 73.4 °F 62% 29.86 in 6.2 mi SW 4.6 mph - N/A   Scattered Clouds
11:00 AM 87.8 °F 95.6 °F 73.4 °F 62% 29.83 in 6.2 mi SE 5.8 mph - N/A   Scattered Clouds
11:30 AM 89.6 °F 96.2 °F 71.6 °F 55% 29.83 in 6.2 mi East 5.8 mph - N/A   Partly Cloudy
12:00 PM 91.4 °F 98.4 °F 71.6 °F 52% 29.80 in 6.2 mi ESE 5.8 mph - N/A   Partly Cloudy
12:30 PM 89.6 °F 98.2 °F 73.4 °F 59% 29.80 in 6.2 mi East 12.7 mph - N/A   Partly Cloudy
1:00 PM 89.6 °F 98.2 °F 73.4 °F 59% 29.77 in 6.2 mi NE 6.9 mph - N/A   Partly Cloudy
1:30 PM 89.6 °F 98.2 °F 73.4 °F 59% 29.74 in 6.2 mi East 9.2 mph - N/A   Scattered Clouds
2:00 PM 93.2 °F 102.4 °F 73.4 °F 52% 29.74 in 6.2 mi East 6.9 mph - N/A   Scattered Clouds
2:30 PM 93.2 °F 100.5 °F 71.6 °F 49% 29.71 in 6.2 mi SSE 6.9 mph - N/A   Scattered Clouds
3:00 PM 91.4 °F 98.4 °F 71.6 °F 52% 29.71 in 6.2 mi ESE 4.6 mph - N/A   Scattered Clouds
3:30 PM 91.4 °F 98.4 °F 71.6 °F 52% 29.68 in 6.2 mi ESE 8.1 mph - N/A   Scattered Clouds
4:00 PM 91.4 °F 98.4 °F 71.6 °F 52% 29.68 in 6.2 mi SSE 8.1 mph - N/A   Mostly Cloudy
4:30 PM 89.6 °F 96.2 °F 71.6 °F 55% 29.68 in 5.6 mi SSW 16.1 mph - N/A Thunderstorm Thunderstorm
5:00 PM 87.8 °F 93.8 °F 71.6 °F 58% 29.71 in 5.6 mi WSW 16.1 mph - N/A Rain Rain
5:30 PM 82.4 °F 87.2 °F 71.6 °F 70% 29.74 in 5.6 mi NNW 10.4 mph 23.0 mph N/A Rain , Thunderstorm Light Thunderstorms and Rain
6:00 PM 78.8 °F - 73.4 °F 83% 29.77 in 3.1 mi NNW 13.8 mph - N/A Rain , Thunderstorm Thunderstorms and Rain
6:30 PM 77.0 °F - 73.4 °F 89% 29.74 in 5.0 mi WNW 11.5 mph - N/A Rain Light Rain
7:00 PM 77.0 °F - 73.4 °F 89% 29.77 in 5.6 mi West 13.8 mph - N/A Rain Light Rain
7:30 PM 77.0 °F - 73.4 °F 89% 29.77 in 5.6 mi West 4.6 mph - N/A   Scattered Clouds
8:00 PM 78.8 °F - 71.6 °F 78% 29.77 in 5.6 mi NNE 2.3 mph - N/A   Scattered Clouds
8:30 PM 78.8 °F - 71.6 °F 78% 29.77 in 5.6 mi NNW 2.3 mph - N/A   Scattered Clouds
9:00 PM 78.8 °F - 71.6 °F 78% 29.77 in 5.6 mi Variable 4.6 mph - N/A   Scattered Clouds
9:30 PM 78.8 °F - 71.6 °F 78% 29.77 in 5.6 mi Variable 4.6 mph - N/A   Scattered Clouds
10:00 PM 78.8 °F - 71.6 °F 78% 29.80 in 5.6 mi Variable 3.5 mph - N/A   Scattered Clouds
10:30 PM 78.8 °F - 71.6 °F 78% 29.80 in 5.6 mi South 3.5 mph - N/A   Scattered Clouds
11:00 PM 78.8 °F - 71.6 °F 78% 29.80 in 5.6 mi Variable 3.5 mph - N/A   Scattered Clouds
11:30 PM 78.8 °F - 69.8 °F 74% 29.80 in 5.6 mi Variable 2.3 mph - N/A   Scattered Clouds